Time,TemperatureF,DewpointF,PressureIn,WindDirection,WindDirectionDegrees,WindSpeedMPH,WindSpeedGustMPH,Humidity,HourlyPrecipIn,Conditions,Clouds,dailyrainin,SoftwareType,DateUTC
2013-08-13 00:06:00,59.6,49.0,29.79,SW,226,3.0,6.0,68,0.00,,,0.00,weatherlink.com 1.10,2013-08-13 06:06:00,
2013-08-13 00:21:00,59.9,49.0,29.79,WSW,257,3.0,10.0,68,0.00,,,0.00,weatherlink.com 1.10,2013-08-13 06:21:00,
2013-08-13 00:36:00,60.3,49.0,29.79,West,262,0.0,1.0,66,0.00,,,0.00,weatherlink.com 1.10,2013-08-13 06:36:00,
2013-08-13 00:51:00,61.0,49.0,29.79,NW,318,0.0,1.0,65,0.00,,,0.00,weatherlink.com 1.10,2013-08-13 06:51:00,
2013-08-13 01:06:00,62.4,49.0,29.80,NNE,26,0.0,1.0,61,0.00,,,0.00,weatherlink.com 1.10,2013-08-13 07:06:00,
2013-08-13 01:21:00,61.5,49.0,29.80,NNW,345,0.0,1.0,63,0.00,,,0.00,weatherlink.com 1.10,2013-08-13 07:21:00,
2013-08-13 01:36:00,59.7,48.0,29.80,North,354,0.0,1.0,66,0.00,,,0.00,weatherlink.com 1.10,2013-08-13 07:36:00,
2013-08-13 01:51:00,58.4,49.0,29.80,NNW,345,0.0,0.0,70,0.00,,,0.00,weatherlink.com 1.10,2013-08-13 07:51:00,
2013-08-13 02:06:00,57.6,49.0,29.80,SSE,167,0.0,0.0,73,0.00,,,0.00,weatherlink.com 1.10,2013-08-13 08:06:00,
2013-08-13 02:21:00,56.6,49.0,29.79,SSE,167,0.0,0.0,76,0.00,,,0.00,weatherlink.com 1.10,2013-08-13 08:21:00,
2013-08-13 02:36:00,55.5,48.0,29.81,SSE,163,0.0,0.0,77,0.00,,,0.00,weatherlink.com 1.10,2013-08-13 08:36:00,
2013-08-13 02:52:00,55.8,49.0,29.81,NE,37,0.0,1.0,78,0.00,,,0.00,weatherlink.com 1.10,2013-08-13 08:52:00,
2013-08-13 03:07:00,56.7,49.0,29.80,NNW,332,0.0,1.0,75,0.00,,,0.00,weatherlink.com 1.10,2013-08-13 09:07:00,
2013-08-13 03:22:00,55.7,49.0,29.81,North,356,0.0,1.0,77,0.00,,,0.00,weatherlink.com 1.10,2013-08-13 09:22:00,
2013-08-13 03:37:00,54.5,49.0,29.80,North,356,0.0,1.0,81,0.00,,,0.00,weatherlink.com 1.10,2013-08-13 09:37:00,
2013-08-13 03:52:00,53.4,48.0,29.81,North,356,0.0,0.0,82,0.00,,,0.00,weatherlink.com 1.10,2013-08-13 09:52:00,
2013-08-13 04:07:00,53.0,48.0,29.81,North,354,0.0,0.0,84,0.00,,,0.00,weatherlink.com 1.10,2013-08-13 10:07:00,
2013-08-13 04:22:00,53.3,49.0,29.81,WNW,302,0.0,0.0,85,0.00,,,0.00,weatherlink.com 1.10,2013-08-13 10:22:00,
2013-08-13 04:37:00,54.1,49.0,29.81,NW,324,0.0,1.0,84,0.00,,,0.00,weatherlink.com 1.10,2013-08-13 10:37:00,
2013-08-13 04:52:00,53.8,48.0,29.82,NNW,330,0.0,0.0,82,0.00,,,0.00,weatherlink.com 1.10,2013-08-13 10:52:00,
2013-08-13 05:07:00,53.2,49.0,29.82,WNW,294,0.0,1.0,85,0.00,,,0.00,weatherlink.com 1.10,2013-08-13 11:07:00,
2013-08-13 05:22:00,52.2,49.0,29.82,WSW,257,0.0,0.0,87,0.00,,,0.00,weatherlink.com 1.10,2013-08-13 11:22:00,
2013-08-13 05:37:00,51.2,48.0,29.82,West,259,0.0,0.0,88,0.00,,,0.00,weatherlink.com 1.10,2013-08-13 11:37:00,
2013-08-13 05:52:00,51.0,48.0,29.83,SW,217,0.0,0.0,89,0.00,,,0.00,weatherlink.com 1.10,2013-08-13 11:52:00,
2013-08-13 06:07:00,50.7,47.0,29.84,WSW,253,0.0,0.0,88,0.00,,,0.00,weatherlink.com 1.10,2013-08-13 12:07:00,
2013-08-13 06:22:00,-999.0,-99.9,29.84,North,-999,-999.0,-999.0,-999,0.00,,,0.00,weatherlink.com 1.10,2013-08-13 12:22:00,
2013-08-13 06:37:00,-999.0,-99.9,29.84,North,-999,-999.0,-999.0,-999,0.00,,,0.00,weatherlink.com 1.10,2013-08-13 12:37:00,
2013-08-13 06:52:00,-999.0,-99.9,29.84,North,-999,-999.0,-999.0,-999,0.00,,,0.00,weatherlink.com 1.10,2013-08-13 12:52:00,
2013-08-13 07:07:00,52.8,49.0,29.85,West,277,0.0,0.0,87,0.00,,,0.00,weatherlink.com 1.10,2013-08-13 13:07:00,
2013-08-13 07:22:00,53.9,50.0,29.86,West,266,0.0,0.0,86,0.00,,,0.00,weatherlink.com 1.10,2013-08-13 13:22:00,
2013-08-13 07:37:00,54.5,50.0,29.87,WSW,243,0.0,0.0,85,0.00,,,0.00,weatherlink.com 1.10,2013-08-13 13:37:00,
2013-08-13 07:52:00,56.6,51.0,29.87,SW,217,0.0,0.0,81,0.00,,,0.00,weatherlink.com 1.10,2013-08-13 13:52:00,
2013-08-13 08:07:00,58.6,51.0,29.88,NW,308,0.0,1.0,76,0.00,,,0.00,weatherlink.com 1.10,2013-08-13 14:07:00,
2013-08-13 08:22:00,59.7,52.0,29.88,West,269,0.0,0.0,75,0.00,,,0.00,weatherlink.com 1.10,2013-08-13 14:22:00,
2013-08-13 08:37:00,61.6,52.0,29.89,WNW,302,0.0,1.0,70,0.00,,,0.00,weatherlink.com 1.10,2013-08-13 14:37:00,
2013-08-13 08:52:00,63.4,51.0,29.89,NW,319,0.0,1.0,64,0.00,,,0.00,weatherlink.com 1.10,2013-08-13 14:52:00,
2013-08-13 09:23:00,68.7,52.0,29.89,West,280,0.0,1.0,55,0.00,,,0.00,weatherlink.com 1.10,2013-08-13 15:23:00,
2013-08-13 09:38:00,72.5,52.0,29.88,SSE,150,0.0,2.0,49,0.00,,,0.00,weatherlink.com 1.10,2013-08-13 15:38:00,
2013-08-13 09:53:00,74.5,52.0,29.89,NW,311,0.0,3.0,45,0.00,,,0.00,weatherlink.com 1.10,2013-08-13 15:53:00,
2013-08-13 10:08:00,74.9,51.0,29.89,SW,233,0.0,2.0,43,0.00,,,0.00,weatherlink.com 1.10,2013-08-13 16:08:00,
2013-08-13 10:23:00,75.2,51.0,29.89,NW,307,0.0,2.0,43,0.00,,,0.00,weatherlink.com 1.10,2013-08-13 16:23:00,
2013-08-13 10:38:00,78.1,51.0,29.88,South,176,0.0,4.0,39,0.00,,,0.00,weatherlink.com 1.10,2013-08-13 16:38:00,
2013-08-13 10:53:00,79.0,51.0,29.89,NE,44,4.0,4.0,37,0.00,,,0.00,weatherlink.com 1.10,2013-08-13 16:53:00,
2013-08-13 11:08:00,79.1,52.0,29.88,SSW,198,0.0,1.0,39,0.00,,,0.00,weatherlink.com 1.10,2013-08-13 17:08:00,
2013-08-13 11:23:00,81.4,51.0,29.88,West,263,0.0,2.0,35,0.00,,,0.00,weatherlink.com 1.10,2013-08-13 17:23:00,
2013-08-13 11:38:00,81.3,53.0,29.87,South,176,1.0,3.0,37,0.00,,,0.00,weatherlink.com 1.10,2013-08-13 17:38:00,
2013-08-13 11:53:00,84.2,51.0,29.87,SSE,167,3.0,7.0,32,0.00,,,0.00,weatherlink.com 1.10,2013-08-13 17:53:00,
2013-08-13 12:08:00,84.2,52.0,29.86,WSW,252,3.0,7.0,33,0.00,,,0.00,weatherlink.com 1.10,2013-08-13 18:08:00,
2013-08-13 12:23:00,86.6,53.0,29.85,ESE,110,1.0,5.0,32,0.00,,,0.00,weatherlink.com 1.10,2013-08-13 18:23:00,
2013-08-13 12:38:00,89.4,54.0,29.85,SSW,198,4.0,4.0,30,0.00,,,0.00,weatherlink.com 1.10,2013-08-13 18:38:00,
2013-08-13 12:53:00,87.5,52.0,29.84,SW,219,3.0,7.0,29,0.00,,,0.00,weatherlink.com 1.10,2013-08-13 18:53:00,
2013-08-13 13:08:00,86.7,53.0,29.83,WNW,283,0.0,6.0,31,0.00,,,0.00,weatherlink.com 1.10,2013-08-13 19:08:00,
2013-08-13 13:23:00,87.0,52.0,29.82,WNW,288,0.0,5.0,30,0.00,,,0.00,weatherlink.com 1.10,2013-08-13 19:23:00,
2013-08-13 13:38:00,90.3,53.0,29.82,SSW,195,1.0,3.0,28,0.00,,,0.00,weatherlink.com 1.10,2013-08-13 19:38:00,
2013-08-13 13:53:00,91.1,52.0,29.82,WSW,248,0.0,2.0,26,0.00,,,0.00,weatherlink.com 1.10,2013-08-13 19:53:00,
2013-08-13 14:08:00,93.3,51.0,29.81,NNW,332,0.0,7.0,24,0.00,,,0.00,weatherlink.com 1.10,2013-08-13 20:08:00,
2013-08-13 14:23:00,91.2,51.0,29.80,SSE,159,0.0,1.0,25,0.00,,,0.00,weatherlink.com 1.10,2013-08-13 20:23:00,
2013-08-13 14:38:00,93.2,50.0,29.80,NW,326,4.0,8.0,23,0.00,,,0.00,weatherlink.com 1.10,2013-08-13 20:38:00,
2013-08-13 14:53:00,93.8,50.0,29.79,NW,307,0.0,6.0,22,0.00,,,0.00,weatherlink.com 1.10,2013-08-13 20:53:00,
2013-08-13 15:08:00,94.3,51.0,29.78,South,169,2.0,6.0,23,0.00,,,0.00,weatherlink.com 1.10,2013-08-13 21:08:00,
2013-08-13 15:23:00,93.8,46.0,29.77,SSE,152,1.0,5.0,19,0.00,,,0.00,weatherlink.com 1.10,2013-08-13 21:23:00,
2013-08-13 15:38:00,93.8,44.0,29.77,South,176,3.0,5.0,18,0.00,,,0.00,weatherlink.com 1.10,2013-08-13 21:38:00,
2013-08-13 15:53:00,91.0,46.0,29.77,West,273,0.0,4.0,21,0.00,,,0.00,weatherlink.com 1.10,2013-08-13 21:53:00,
2013-08-13 16:09:00,94.3,49.0,29.76,South,170,5.0,9.0,21,0.00,,,0.00,weatherlink.com 1.10,2013-08-13 22:09:00,
2013-08-13 16:24:00,92.0,50.0,29.76,South,184,3.0,4.0,24,0.00,,,0.00,weatherlink.com 1.10,2013-08-13 22:24:00,
2013-08-13 16:39:00,91.0,54.0,29.75,South,169,5.0,10.0,28,0.00,,,0.00,weatherlink.com 1.10,2013-08-13 22:39:00,
2013-08-13 16:54:00,90.6,53.0,29.76,WSW,252,2.0,9.0,28,0.00,,,0.00,weatherlink.com 1.10,2013-08-13 22:54:00,
2013-08-13 17:09:00,89.0,54.0,29.77,South,173,3.0,10.0,30,0.00,,,0.00,weatherlink.com 1.10,2013-08-13 23:09:00,
2013-08-13 17:24:00,86.4,53.0,29.76,SSE,152,5.0,12.0,32,0.00,,,0.00,weatherlink.com 1.10,2013-08-13 23:24:00,
2013-08-13 17:39:00,85.4,53.0,29.76,SW,228,4.0,10.0,33,0.00,,,0.00,weatherlink.com 1.10,2013-08-13 23:39:00,
2013-08-13 17:54:00,83.7,52.0,29.76,WSW,253,0.0,7.0,34,0.00,,,0.00,weatherlink.com 1.10,2013-08-13 23:54:00,
2013-08-13 18:09:00,79.4,51.0,29.77,South,169,2.0,6.0,37,0.00,,,0.00,weatherlink.com 1.10,2013-08-14 00:09:00,
2013-08-13 18:24:00,76.8,51.0,29.76,South,172,0.0,5.0,40,0.00,,,0.00,weatherlink.com 1.10,2013-08-14 00:24:00,
2013-08-13 18:39:00,76.0,49.0,29.76,SSE,166,2.0,4.0,39,0.00,,,0.00,weatherlink.com 1.10,2013-08-14 00:39:00,
2013-08-13 18:54:00,76.5,49.0,29.77,SSW,207,0.0,0.0,38,0.00,,,0.00,weatherlink.com 1.10,2013-08-14 00:54:00,
2013-08-13 19:09:00,77.1,50.0,29.77,SSW,203,0.0,0.0,38,0.00,,,0.00,weatherlink.com 1.10,2013-08-14 01:09:00,
2013-08-13 19:24:00,75.3,49.0,29.77,SSW,198,1.0,2.0,40,0.00,,,0.00,weatherlink.com 1.10,2013-08-14 01:24:00,
2013-08-13 19:39:00,74.0,49.0,29.78,SW,228,0.0,1.0,42,0.00,,,0.00,weatherlink.com 1.10,2013-08-14 01:39:00,
2013-08-13 19:54:00,72.8,50.0,29.78,South,189,0.0,1.0,44,0.00,,,0.00,weatherlink.com 1.10,2013-08-14 01:54:00,
2013-08-13 20:09:00,71.4,51.0,29.78,SSE,156,0.0,4.0,48,0.00,,,0.00,weatherlink.com 1.10,2013-08-14 02:09:00,
2013-08-13 20:24:00,70.6,50.0,29.79,South,187,1.0,4.0,49,0.00,,,0.00,weatherlink.com 1.10,2013-08-14 02:24:00,
2013-08-13 20:39:00,70.6,51.0,29.80,West,281,0.0,6.0,50,0.00,,,0.00,weatherlink.com 1.10,2013-08-14 02:39:00,
2013-08-13 20:54:00,69.6,52.0,29.82,NW,305,0.0,2.0,54,0.00,,,0.00,weatherlink.com 1.10,2013-08-14 02:54:00,
2013-08-13 21:09:00,69.9,51.0,29.83,SW,217,0.0,5.0,52,0.00,,,0.00,weatherlink.com 1.10,2013-08-14 03:09:00,
2013-08-13 21:24:00,69.4,51.0,29.84,WSW,238,6.0,9.0,52,0.00,,,0.00,weatherlink.com 1.10,2013-08-14 03:24:00,
2013-08-13 21:39:00,69.1,52.0,29.86,West,274,0.0,1.0,54,0.00,,,0.00,weatherlink.com 1.10,2013-08-14 03:39:00,
2013-08-13 21:54:00,65.8,49.0,29.91,SW,225,10.0,28.0,54,0.00,,,0.00,weatherlink.com 1.10,2013-08-14 03:54:00,
2013-08-13 22:09:00,62.9,50.0,29.90,NNE,27,14.0,27.0,63,0.00,,,0.00,weatherlink.com 1.10,2013-08-14 04:09:00,
2013-08-13 22:24:00,61.3,51.0,29.90,WSW,239,9.0,22.0,68,0.00,,,0.00,weatherlink.com 1.10,2013-08-14 04:24:00,
2013-08-13 22:39:00,60.5,51.0,29.89,NNE,29,16.0,20.0,71,0.00,,,0.00,weatherlink.com 1.10,2013-08-14 04:39:00,
2013-08-13 22:54:00,61.2,51.0,29.89,SE,126,11.0,26.0,69,0.00,,,0.00,weatherlink.com 1.10,2013-08-14 04:54:00,
2013-08-13 23:09:00,61.2,51.0,29.89,NE,34,6.0,17.0,69,0.00,,,0.00,weatherlink.com 1.10,2013-08-14 05:09:00,
2013-08-13 23:24:00,60.8,51.0,29.89,South,191,2.0,13.0,71,0.00,,,0.00,weatherlink.com 1.10,2013-08-14 05:24:00,
2013-08-13 23:39:00,60.6,52.0,29.89,West,266,2.0,11.0,72,0.00,,,0.00,weatherlink.com 1.10,2013-08-14 05:39:00,
2013-08-13 23:54:00,60.7,52.0,29.89,SW,222,0.0,5.0,72,0.00,,,0.00,weatherlink.com 1.10,2013-08-14 05:54:00,